This is the latest recevied weather packets stored in our database for station/object W2GUX. If no packets are shown the sender has not sent any weather packets the latest 10 day(s).
| Time | Temp. | Humidity | Pressure | Rain* | Wind** | Luminosity | Snow |
|---|---|---|---|---|---|---|---|
| 1777387804 | 18.33° C | 34% | 1018.5 hPa | 0 mm | - | - | - |
| 1777387503 | 17.78° C | 35% | 1018.4 hPa | 0 mm | - | - | - |
| 1777387203 | 17.78° C | 33% | 1018.5 hPa | 0 mm | - | - | - |
| 1777386903 | 18.33° C | 34% | 1018.6 hPa | 0 mm | - | - | - |
| 1777386604 | 18.33° C | 34% | 1018.5 hPa | 0 mm | - | - | - |
| 1777386304 | 18.33° C | 32% | 1018.5 hPa | 0 mm | - | - | - |
| 1777386003 | 18.33° C | 33% | 1018.5 hPa | 0 mm | - | - | - |
| 1777385703 | 17.78° C | 36% | 1018.6 hPa | 0 mm | - | - | - |
| 1777385404 | 17.22° C | 36% | 1018.5 hPa | 0 mm | - | - | - |
| 1777385104 | 17.22° C | 36% | 1018.5 hPa | 0 mm | - | - | - |
| 1777384803 | 17.22° C | 37% | 1018.6 hPa | 0 mm | - | - | - |
| 1777384504 | 17.22° C | 38% | 1018.6 hPa | 0 mm | - | - | - |
| 1777384204 | 16.67° C | 36% | 1018.6 hPa | 0 mm | - | - | - |
| 1777383904 | 16.67° C | 39% | 1018.6 hPa | 0 mm | - | - | - |
| 1777383603 | 16.11° C | 39% | 1018.7 hPa | 0 mm | - | - | - |
| 1777383303 | 15.56° C | 41% | 1018.6 hPa | 0 mm | - | - | - |
| 1777383004 | 15.56° C | 42% | 1018.6 hPa | 0 mm | - | - | - |
| 1777382704 | 15° C | 43% | 1018.7 hPa | 0 mm | - | - | - |
| 1777382403 | 14.44° C | 44% | 1018.6 hPa | 0 mm | - | - | - |
| 1777382104 | 13.89° C | 47% | 1018.6 hPa | 0 mm | - | - | - |
| 1777381803 | 13.33° C | 48% | 1018.7 hPa | 0 mm | - | - | - |
| 1777381504 | 12.78° C | 53% | 1018.7 hPa | 0 mm | - | - | - |
| 1777381204 | 12.22° C | 58% | 1018.6 hPa | 0 mm | - | - | - |
| 1777380903 | 11.67° C | 60% | 1018.7 hPa | 0 mm | - | - | - |
| 1777380604 | 11.11° C | 63% | 1018.6 hPa | 0 mm | - | - | - |
* Rain latest hour (hover to see other rain measurements)
** Current wind speed in m/s (hover to see current wind gust speed)